EN

Hourly Weather Palmino

Today, 24 February, Wednesday

Time Temperature Precipitation Wind Pressure Humidity
00:00 -39°C° 0 mm 5 mps 764 mmHg 92%
01:00 -39°C° 0 mm 5 mps 763 mmHg 92%
02:00 -39°C° 0 mm 5 mps 763 mmHg 92%
03:00 -39°C° 0 mm 5 mps 763 mmHg 92%
04:00 -40°C° 0 mm 6 mps 762 mmHg 92%
05:00 -39°C° 0 mm 6 mps 761 mmHg 92%
06:00 -39°C° 0 mm 6 mps 761 mmHg 92%
07:00 -39°C° 0 mm 6 mps 761 mmHg 91%
08:00 -37°C° 0 mm 6 mps 761 mmHg 92%
09:00 -37°C° 0 mm 6 mps 761 mmHg 92%
10:00 -37°C° 0 mm 7 mps 761 mmHg 92%
11:00 -35°C° 0 mm 6 mps 760 mmHg 91%
12:00 -34°C° 0 mm 6 mps 760 mmHg 91%
13:00 -33°C° 0 mm 6 mps 759 mmHg 90%
14:00 -31°C° 0 mm 6 mps 759 mmHg 89%
15:00 -31°C° 0 mm 6 mps 759 mmHg 89%
16:00 -31°C° 0 mm 6 mps 759 mmHg 87%
17:00 -31°C° 0 mm 6 mps 759 mmHg 88%
18:00 -33°C° 0 mm 6 mps 759 mmHg 89%
19:00 -34°C° 0 mm 6 mps 759 mmHg 90%
20:00 -34°C° 0 mm 6 mps 759 mmHg 90%
21:00 -34°C° 0 mm 5 mps 759 mmHg 90%
22:00 -34°C° 0 mm 5 mps 759 mmHg 91%
23:00 -34°C° 0 mm 4 mps 759 mmHg 91%

Tomorrow, 25 February, Thursday

Time Temperature Precipitation Wind Pressure Humidity
00:00 -35°C° 0 mm 4 mps 759 mmHg 92%
01:00 -35°C° 0 mm 3 mps 759 mmHg 93%
02:00 -35°C° 0 mm 3 mps 759 mmHg 94%
03:00 -35°C° 0 mm 3 mps 759 mmHg 94%
04:00 -36°C° 0 mm 3 mps 759 mmHg 94%
05:00 -36°C° 0 mm 3 mps 760 mmHg 95%
06:00 -36°C° 0 mm 3 mps 760 mmHg 95%
07:00 -36°C° 0 mm 2 mps 760 mmHg 96%
08:00 -34°C° 0 mm 2 mps 760 mmHg 96%
09:00 -32°C° 0 mm 2 mps 760 mmHg 95%
10:00 -30°C° 0 mm 2 mps 760 mmHg 95%
11:00 -29°C° 0 mm 2 mps 760 mmHg 94%
12:00 -27°C° 0 mm 2 mps 760 mmHg 94%
13:00 -27°C° 0 mm 3 mps 760 mmHg 93%
14:00 -26°C° 0 mm 2 mps 761 mmHg 93%
15:00 -25°C° 0 mm 2 mps 761 mmHg 93%
16:00 -25°C° 0 mm 2 mps 761 mmHg 94%
17:00 -26°C° 0 mm 2 mps 761 mmHg 95%
18:00 -25°C° 0 mm 1 mps 761 mmHg 96%
19:00 -27°C° 0 mm 1 mps 762 mmHg 98%
20:00 -28°C° 0 mm 1 mps 762 mmHg 98%
21:00 -29°C° 0 mm 1 mps 762 mmHg 99%
22:00 -28°C° 0 mm 0 mps 762 mmHg 99%
23:00 -29°C° 0 mm 0 mps 762 mmHg 99%

Day after tomorrow, 26 February, Friday

Time Temperature Precipitation Wind Pressure Humidity
00:00 -29°C° 0 mm 0 mps 762 mmHg 99%
01:00 -29°C° 0 mm 0 mps 762 mmHg 99%
02:00 -29°C° 0 mm 0 mps 762 mmHg 99%
03:00 -29°C° 0 mm 0 mps 762 mmHg 99%
04:00 -29°C° 0 mm 0 mps 763 mmHg 99%
05:00 -30°C° 0 mm 0 mps 763 mmHg 99%
06:00 -30°C° 0 mm 0 mps 762 mmHg 99%
07:00 -30°C° 0 mm 0 mps 762 mmHg 99%
08:00 -28°C° 0 mm 1 mps 763 mmHg 96%
09:00 -25°C° 0 mm 1 mps 763 mmHg 94%
10:00 -22°C° 0 mm 1 mps 763 mmHg 91%
11:00 -21°C° 0 mm 1 mps 763 mmHg 90%
12:00 -19°C° 0 mm 1 mps 763 mmHg 88%
13:00 -18°C° 0 mm 1 mps 762 mmHg 86%
14:00 -18°C° 0 mm 1 mps 762 mmHg 89%
15:00 -18°C° 0 mm 1 mps 762 mmHg 91%
16:00 -18°C° 0 mm 1 mps 762 mmHg 93%
17:00 -19°C° 0 mm 1 mps 762 mmHg 95%
18:00 -24°C° 0 mm 2 mps 762 mmHg 97%
19:00 -25°C° 0 mm 2 mps 762 mmHg 98%
20:00 -25°C° 0 mm 2 mps 762 mmHg 98%
21:00 -26°C° 0 mm 2 mps 762 mmHg 99%
22:00 -27°C° 0 mm 2 mps 762 mmHg 99%
23:00 -27°C° 0 mm 2 mps 761 mmHg 99%

27 February, Saturday

Time Temperature Precipitation Wind Pressure Humidity
00:00 -28°C° 0 mm 2 mps 761 mmHg 99%
01:00 -28°C° 0 mm 2 mps 761 mmHg 98%
02:00 -29°C° 0 mm 2 mps 760 mmHg 98%
03:00 -29°C° 0 mm 2 mps 760 mmHg 97%
04:00 -30°C° 0 mm 2 mps 760 mmHg 96%
05:00 -30°C° 0 mm 2 mps 760 mmHg 96%
06:00 -31°C° 0 mm 2 mps 760 mmHg 95%
07:00 -33°C° 0 mm 3 mps 759 mmHg 94%
08:00 -32°C° 0 mm 3 mps 759 mmHg 94%
09:00 -31°C° 0 mm 3 mps 759 mmHg 93%
10:00 -30°C° 0 mm 3 mps 759 mmHg 93%
11:00 -27°C° 0 mm 3 mps 758 mmHg 92%
12:00 -26°C° 0 mm 3 mps 758 mmHg 91%
13:00 -25°C° 0 mm 4 mps 758 mmHg 89%
14:00 -25°C° 0 mm 4 mps 757 mmHg 90%
15:00 -25°C° 0 mm 4 mps 757 mmHg 90%
16:00 -25°C° 0 mm 4 mps 756 mmHg 91%
17:00 -25°C° 0 mm 4 mps 756 mmHg 92%
18:00 -26°C° 0 mm 4 mps 756 mmHg 93%
19:00 -26°C° 0 mm 4 mps 756 mmHg 94%
20:00 -26°C° 0.1 mm 4 mps 755 mmHg 94%
21:00 -26°C° 0.1 mm 4 mps 755 mmHg 95%
22:00 -26°C° 0.1 mm 4 mps 755 mmHg 95%
23:00 -26°C° 0.1 mm 4 mps 754 mmHg 96%

28 February, Sunday

Time Temperature Precipitation Wind Pressure Humidity
00:00 -25°C° 0.1 mm 3 mps 754 mmHg 96%
01:00 -25°C° 0.1 mm 3 mps 753 mmHg 96%
02:00 -25°C° 0.1 mm 3 mps 753 mmHg 96%
03:00 -25°C° 0.1 mm 3 mps 753 mmHg 96%
04:00 -25°C° 0.1 mm 3 mps 752 mmHg 96%
05:00 -25°C° 0.1 mm 3 mps 752 mmHg 96%
06:00 -25°C° 0.1 mm 3 mps 752 mmHg 96%
07:00 -25°C° 0.1 mm 3 mps 752 mmHg 96%
08:00 -25°C° 0.1 mm 3 mps 751 mmHg 96%
09:00 -24°C° 0.1 mm 3 mps 751 mmHg 95%
10:00 -23°C° 0.1 mm 3 mps 751 mmHg 94%
11:00 -23°C° 0 mm 3 mps 751 mmHg 93%
12:00 -22°C° 0 mm 3 mps 751 mmHg 93%
13:00 -21°C° 0 mm 3 mps 751 mmHg 92%
14:00 -21°C° 0 mm 3 mps 751 mmHg 92%
15:00 -21°C° 0 mm 3 mps 751 mmHg 92%
16:00 -21°C° 0 mm 3 mps 751 mmHg 93%
17:00 -20°C° 0.1 mm 2 mps 751 mmHg 94%
18:00 -20°C° 0.1 mm 2 mps 751 mmHg 95%
19:00 -21°C° 0.1 mm 2 mps 751 mmHg 96%
20:00 -21°C° 0.1 mm 2 mps 751 mmHg 96%
21:00 -21°C° 0.1 mm 2 mps 751 mmHg 97%
22:00 -23°C° 0.1 mm 2 mps 751 mmHg 97%
23:00 -23°C° 0 mm 2 mps 751 mmHg 97%

1 March, Monday

Time Temperature Precipitation Wind Pressure Humidity
00:00 -24°C° 0 mm 2 mps 752 mmHg 97%
01:00 -24°C° 0 mm 2 mps 752 mmHg 98%
02:00 -25°C° 0 mm 2 mps 752 mmHg 98%
03:00 -25°C° 0 mm 2 mps 752 mmHg 98%
04:00 -26°C° 0 mm 2 mps 752 mmHg 98%
05:00 -26°C° 0 mm 2 mps 752 mmHg 98%
06:00 -27°C° 0 mm 2 mps 752 mmHg 98%
07:00 -27°C° 0 mm 2 mps 752 mmHg 98%
08:00 -26°C° 0 mm 2 mps 753 mmHg 97%
09:00 -24°C° 0 mm 2 mps 753 mmHg 96%
10:00 -23°C° 0 mm 2 mps 753 mmHg 95%
11:00 -21°C° 0 mm 2 mps 753 mmHg 94%
12:00 -20°C° 0 mm 2 mps 753 mmHg 92%
13:00 -19°C° 0 mm 2 mps 753 mmHg 90%
14:00 -19°C° 0 mm 2 mps 753 mmHg 91%
15:00 -19°C° 0 mm 2 mps 752 mmHg 91%
16:00 -19°C° 0 mm 2 mps 752 mmHg 92%
17:00 -19°C° 0 mm 1 mps 752 mmHg 94%
18:00 -20°C° 0 mm 1 mps 752 mmHg 96%
19:00 -22°C° 0 mm 1 mps 752 mmHg 98%
20:00 -23°C° 0 mm 1 mps 752 mmHg 98%
21:00 -24°C° 0 mm 1 mps 752 mmHg 98%
22:00 -24°C° 0 mm 1 mps 752 mmHg 99%
23:00 -25°C° 0 mm 1 mps 752 mmHg 99%
Show more

We Need Your Consent

Meteoprog and our Service Providers may store and access personal data such as cookies, device identifiers or other similar technologies on your device and process such data to personalise content and ads, as well as provide social media features and to analyse the traffic.

  • Store and/or access information on your device

    Cookies, device identifiers or other information can be stored or accessed on your device for the purposes indicated above.

  • Personalised ads and content, ad and content measurement, audience insights, and products development

    Ads and content can be personalised based on a profile. More data can be added to better personalise ads and content. Ad and content performance can be measured. Insights about the audience who saw the ads and content can be derived. Such data can be used to develop or improve user’s experience, systems and software.

By clicking ‘I Agree’ you will allow the use of indicated cookies, device identifiers, web beacons or other similar technologies. Your settings can be changed in the browser on your device.

For certain purposes, legitimate interests may be relied on, rather than consent. You can read more about this in our Privacy and Cookie Policy.